Location: Monteux
(44.0348°N, 4.9972°E)
Time: 22:00:48
(UTC+00:00)

Cosmos 2341 Rocket - Pass Details

Date: 23 April 2021
Orbit: 969 x 1003 km, 82.9° (Epoch: 13 May)

Event Time Altitude Azimuth Distance (km) Brightness Sun altitude
Rises 01:08:08 0° 345° (NNW) 3,720 7.7 -29.8°
Reaches altitude 10° 01:10:46 10° 339° (NNW) 2,771 6.9 -29.6°
Enters shadow 01:15:54 41° 290° (WNW) 1,408 4.7 -29.2°
